Retour au catalogue

TIANQI 32

ActifCommunicationsLEO
NORAD 61198·PAYLOAD·🇨🇳 China

Lancé Sep 20, 2024 depuis Xichang Satellite Launch Center

Loading…

Prochains Passages (prochaines 24 heures)

TLE

FraisSource: Space-Track

Époque: Sep 14, 2026, 14:00 UTC

1 61198U 24170D   26257.58358623  .00000013  00000-0  98967-4 0  9998
2 61198  44.8598  99.7294 0007518 135.7802 224.3630 13.97719449 97046

Suivez TIANQI 32 en temps réel avec AllMySat

Download on the App Store